User: anonymous   Login
Location: Black Rock Desert
(40.7548°N, 119.2364°W)
Time: 13:33:32
(UTC-07:00)
Language:

Cosmos 1340 Rocket - Orbit

View from above orbital plane
View from above orbital plane
View from above satellite
View from above satellite

Ground track
Ground track

The orbit data is extracted from the following two-line orbital elements,

1 13068U 82013B   16240.51804278  .00000105  00000-0  54597-5 0  9991
2 13068  81.2046 197.6522 0021817 203.4686 156.5544 15.06674440879271
Epoch (UTC): 27 August 2016 12:25:58
Eccentricity: 0.0021817
inclination: 81.2046°
perigee height: 531 km
apogee height: 561 km
right ascension of ascending node: 197.6522°
argument of perigee: 203.4686°
revolutions per day: 15.06674440
mean anomaly at epoch: 156.5544°
orbit number at epoch: 87927

The dashed part of the orbit path shows where the satellite is in the earth's shadow,  

DLR